Change the Weather History Date:

Tuesday, July 16, 2013

  Actual Average Record
Temperature  
Mean Temperature 64 °F -  
Max Temperature 72 °F 65 °F 75 °F (2003)
Min Temperature 56 °F 52 °F 42 °F (2000)
Degree Days  
Heating Degree Days 1    
Growing Degree Days 14 (Base 50)    
Moisture  
Dew Point 54 °F    
Average Humidity 69    
Maximum Humidity 88    
Minimum Humidity 46    
Precipitation  
Precipitation 0.00 in 0.08 in - ()
Sea Level Pressure  
Sea Level Pressure 30.25 in    
Wind  
Wind Speed 7 mph ()    
Max Wind Speed 13 mph    
Max Gust Speed -    
Visibility 9.0 miles    
Events      
Averages and records for this station are not official NWS values.
T = Trace of Precipitation, MM = Missing Value Source: Averaged Metar Reports

Daily Weather History Graph

Daily Weather History Graph

Search for Another Location

Airport or City:

Trip Planner

Search our weather history database for the weather conditions in past years. The results will help you decide how hot, cold, wet, or windy it might be!

Date:

Astronomy

Jul. 16, 2013 Rise Set
Actual Time 5:17 AM IST 9:44 PM IST
Civil Twilight 4:28 AM IST 10:32 PM IST
Nautical Twilight 3:13 AM IST 11:46 PM IST
Astronomical Twilight 2:03 AM IST 12:58 AM IST
Moon 2:46 PM IST (7/16) 12:09 AM IST (7/16)
Length of Visible Light 18h 03m
Length of Day
16h 27m
First Quarter, 54% of the Moon is Illuminated
Jul 16
First Quarter
Jul 22
Full
Jul 29
Last Quarter
Aug 6
New
Aug 14
First Quarter

Hourly Weather History & Observations

Time (IST) Temp. Dew Point Humidity Pressure Visibility Wind Dir Wind Speed Gust Speed Precip Events Conditions
12:00 AM 60 °F 52 °F 68% 30.27 in 12 mi WSW 3.5 mph - -   Scattered Clouds
12:00 AM 60.8 °F 51.8 °F 72% 30.27 in 6.2 mi WSW 5.8 mph - N/A   Partly Cloudy
12:30 AM 59.0 °F 53.6 °F 82% 30.27 in 6.2 mi WSW 6.9 mph - N/A   Partly Cloudy
1:00 AM 58 °F 53 °F 78% 30.27 in 12 mi WSW 6.7 mph - -   Scattered Clouds
1:00 AM 59.0 °F 53.6 °F 82% 30.27 in 6.2 mi WSW 6.9 mph - N/A   Partly Cloudy
1:30 AM 57.2 °F 53.6 °F 88% 30.27 in 6.2 mi WSW 6.9 mph - N/A   Partly Cloudy
2:00 AM 57 °F 54 °F 86% 30.27 in 12 mi WSW 6.7 mph - -   Scattered Clouds
2:00 AM 57.2 °F 53.6 °F 88% 30.24 in 6.2 mi WSW 6.9 mph - N/A   Partly Cloudy
2:30 AM 57.2 °F 53.6 °F 88% 30.24 in 6.2 mi WSW 6.9 mph - N/A   Partly Cloudy
3:00 AM 58 °F 54 °F 83% 30.26 in 12 mi WSW 3.5 mph - -   Scattered Clouds
3:00 AM 57.2 °F 53.6 °F 88% 30.24 in 6.2 mi WSW 6.9 mph - N/A   Partly Cloudy
3:30 AM 57.2 °F 53.6 °F 88% 30.24 in 6.2 mi WSW 6.9 mph - N/A   Partly Cloudy
4:00 AM 57 °F 54 °F 87% 30.25 in 12 mi WSW 6.7 mph - -   Scattered Clouds
4:00 AM 57.2 °F 53.6 °F 88% 30.24 in 6.2 mi WSW 6.9 mph - N/A   Partly Cloudy
4:30 AM 57.2 °F 53.6 °F 88% 30.24 in 6.2 mi WSW 8.1 mph - N/A   Partly Cloudy
5:00 AM 58 °F 55 °F 86% 30.25 in 12 mi WSW 6.7 mph - -   Mostly Cloudy
5:00 AM 59.0 °F 55.4 °F 88% 30.24 in 6.2 mi WSW 6.9 mph - N/A   Mostly Cloudy
5:30 AM 59.0 °F 55.4 °F 88% 30.24 in 6.2 mi WSW 8.1 mph - N/A   Mostly Cloudy
6:00 AM 59 °F 55 °F 82% 30.25 in 12 mi WSW 11.2 mph - -   Mostly Cloudy
6:00 AM 59.0 °F 55.4 °F 88% 30.24 in 6.2 mi WSW 10.4 mph - N/A   Mostly Cloudy
6:30 AM 59.0 °F 55.4 °F 88% 30.24 in 6.2 mi West 12.7 mph - N/A   Mostly Cloudy
7:00 AM 60 °F 56 °F 83% 30.25 in 12 mi West 13.4 mph - -   Mostly Cloudy
7:00 AM 60.8 °F 55.4 °F 82% 30.24 in 6.2 mi West 12.7 mph - N/A   Mostly Cloudy
7:30 AM 60.8 °F 55.4 °F 82% 30.24 in 6.2 mi West 12.7 mph - N/A   Mostly Cloudy
8:00 AM 62 °F 55 °F 73% 30.26 in 19 mi West 11.2 mph - -   Mostly Cloudy
8:00 AM 60.8 °F 55.4 °F 82% 30.24 in 6.2 mi West 11.5 mph - N/A   Mostly Cloudy
8:30 AM 62.6 °F 55.4 °F 77% 30.24 in 6.2 mi WSW 10.4 mph - N/A   Mostly Cloudy
9:00 AM 63 °F 54 °F 66% 30.27 in 19 mi WSW 4.6 mph - -   Mostly Cloudy
9:00 AM 62.6 °F 55.4 °F 77% 30.24 in 6.2 mi WSW 9.2 mph - N/A   Mostly Cloudy
9:30 AM 62.6 °F 53.6 °F 72% 30.27 in 6.2 mi WSW 10.4 mph - N/A   Mostly Cloudy
10:00 AM 64 °F 53 °F 59% 30.27 in 19 mi WSW 11.2 mph - -   Mostly Cloudy
10:00 AM 64.4 °F 53.6 °F 68% 30.24 in 6.2 mi WSW 11.5 mph - N/A   Mostly Cloudy
10:30 AM 64.4 °F 53.6 °F 68% 30.24 in 6.2 mi WSW 9.2 mph - N/A   Mostly Cloudy
11:00 AM 67 °F 51 °F 47% 30.26 in 19 mi WNW 6.7 mph - -   Partly Cloudy
11:00 AM 66.2 °F 51.8 °F 60% 30.24 in 6.2 mi WNW 6.9 mph - N/A   Scattered Clouds
11:30 AM 66.2 °F 51.8 °F 60% 30.24 in 6.2 mi WNW 6.9 mph - N/A   Scattered Clouds
12:00 PM 67 °F 53 °F 51% 30.26 in 19 mi WNW 8.9 mph - -   Partly Cloudy
12:00 PM 68.0 °F 51.8 °F 56% 30.24 in 6.2 mi WNW 9.2 mph - N/A   Scattered Clouds
12:30 PM 68.0 °F 53.6 °F 60% 30.24 in 6.2 mi WNW 10.4 mph - N/A   Scattered Clouds
1:00 PM 68 °F 54 °F 52% 30.26 in 19 mi WNW 8.9 mph - -   Mostly Cloudy
1:00 PM 68.0 °F 53.6 °F 60% 30.24 in 6.2 mi WNW 8.1 mph - N/A   Mostly Cloudy
1:30 PM 68.0 °F 55.4 °F 64% 30.24 in 6.2 mi West 6.9 mph - N/A   Mostly Cloudy
2:00 PM 69 °F 55 °F 51% 30.26 in 19 mi West 8.9 mph - -   Mostly Cloudy
2:00 PM 69.8 °F 55.4 °F 60% 30.24 in 6.2 mi West 6.9 mph - N/A   Mostly Cloudy
2:30 PM 69.8 °F 53.6 °F 56% 30.24 in 6.2 mi West 9.2 mph - N/A   Mostly Cloudy
3:00 PM 70 °F 54 °F 47% 30.26 in 25 mi West 3.5 mph - -   Mostly Cloudy
3:00 PM 71.6 °F 55.4 °F 57% 30.24 in 6.2 mi WNW 6.9 mph - N/A   Mostly Cloudy
3:30 PM 68.0 °F 55.4 °F 64% 30.24 in 6.2 mi WNW 10.4 mph - N/A   Mostly Cloudy
4:00 PM 69 °F 56 °F 55% 30.26 in 25 mi NW 11.2 mph - -   Mostly Cloudy
4:00 PM 69.8 °F 55.4 °F 60% 30.24 in 6.2 mi WNW 10.4 mph - N/A   Mostly Cloudy
4:30 PM 69.8 °F 53.6 °F 56% 30.24 in 6.2 mi NW 6.9 mph - N/A   Mostly Cloudy
5:00 PM 71.6 °F 53.6 °F 53% 30.24 in 6.2 mi WNW 5.8 mph - N/A   Mostly Cloudy
5:30 PM 71.6 °F 53.6 °F 53% 30.24 in 6.2 mi SE 5.8 mph - N/A   Scattered Clouds
6:00 PM 70 °F 55 °F 49% 30.24 in 22 mi SE 4.6 mph - -   Partly Cloudy
6:00 PM 69.8 °F 53.6 °F 56% 30.24 in 6.2 mi SE 9.2 mph - N/A   Scattered Clouds
6:30 PM 69.8 °F 55.4 °F 60% 30.24 in 6.2 mi SSE 6.9 mph - N/A   Scattered Clouds
7:00 PM 71 °F 54 °F 46% 30.24 in 22 mi ESE 8.9 mph - -   Partly Cloudy
7:00 PM 71.6 °F 55.4 °F 57% 30.24 in 6.2 mi SE 8.1 mph - N/A   Scattered Clouds
7:30 PM 69.8 °F 55.4 °F 60% 30.24 in 6.2 mi ESE 6.9 mph - N/A   Mostly Cloudy
8:00 PM 68 °F 55 °F 54% 30.26 in 19 mi SE 6.7 mph - -   Mostly Cloudy
8:00 PM 68.0 °F 55.4 °F 64% 30.24 in 6.2 mi SE 5.8 mph - N/A   Mostly Cloudy
8:30 PM 68.0 °F 55.4 °F 64% 30.24 in 6.2 mi ESE 4.6 mph - N/A   Mostly Cloudy
9:00 PM 67 °F 56 °F 58% 30.26 in 19 mi SSE 2.3 mph - -   Mostly Cloudy
9:00 PM 68.0 °F 55.4 °F 64% 30.24 in 6.2 mi SSE 4.6 mph - N/A   Mostly Cloudy
9:30 PM 66.2 °F 55.4 °F 68% 30.24 in 6.2 mi SSE 4.6 mph - N/A   Mostly Cloudy
10:00 PM 65 °F 55 °F 63% 30.27 in 19 mi South 4.5 mph - -   Mostly Cloudy
10:00 PM 66.2 °F 55.4 °F 68% 30.27 in 6.2 mi South 3.5 mph - N/A   Mostly Cloudy
10:30 PM 64.4 °F 55.4 °F 73% 30.27 in 6.2 mi SSE 3.5 mph - N/A   Mostly Cloudy
11:00 PM 64 °F 55 °F 66% 30.27 in 19 mi Calm Calm - -   Mostly Cloudy
11:00 PM 64.4 °F 55.4 °F 73% 30.27 in 6.2 mi Calm Calm - N/A   Mostly Cloudy
11:30 PM 64.4 °F 55.4 °F 73% 30.27 in - Calm Calm - N/A   Clear